Regional Weather Roundup
Issued by NWS

Home | Current Version | Previous Version | Graphics & Text | Print | Product List | Glossary On
Versions: 1 2 3 4 5 6 7 8 9 10 11 12 13 14 15 16 17 18 19 20 21 22 23 24 25 26 27 28 29 30 31 32 33 34 35 36 37 38 39 40 41 42 43 44 45 46 47 48 49 50
000
ASUS43 KMKX 242210
RWRWI

WISCONSIN REGIONAL WEATHER ROUNDUP
NATIONAL WEATHER SERVICE MILWAUKEE/SULLIVAN WI
500 PM CDT TUE APR 24 2018

NOTE: "FAIR" INDICATES FEW OR NO CLOUDS BELOW 12,000 FEET WITH NO
SIGNIFICANT WEATHER AND/OR OBSTRUCTIONS TO VISIBILITY.

WIZ001-002-006>008-014>016-023>028-242300-
NORTHWEST WISCONSIN

CITY           SKY/WX    TMP DP  RH WIND       PRES   REMARKS
SUPERIOR ARPT  FAIR      58  29  32 NW9       30.16F
ASHLAND        FAIR      48  33  56 SE7       30.18F
HAYWARD        PTSUNNY   51  36  56 MISG      30.17F
SIREN          FAIR      55  33  43 NE13      30.18S
CUMBERLAND     CLOUDY    46  34  61 N6        30.16S
RICE LAKE      CLOUDY    50  34  53 N13       30.17R
CHETEK         CLOUDY    52  35  50 N10G20    30.15R
LADYSMITH      PTSUNNY   51  32  48 N20G29    30.16R
EAU CLAIRE     FAIR      64  33  31 N20G29    30.09R
MENOMONIE      PTSUNNY   61  29  29 N17G24    30.11R
NEW RICHMOND   CLOUDY    53  33  47 N16G22    30.17R
OSCEOLA        PTSUNNY   55  37  51 N9        30.20S
$$

WIZ003>005-009-010-017-018-242300-
NORTH CENTRAL WISCONSIN

CITY           SKY/WX    TMP DP  RH WIND       PRES   REMARKS
MANITOWISH WTR RAIN      43  28  55 N13G20    30.16R
ARBOR VITAE    CLOUDY    49  30  47 N17G25    30.13R
WOODRUFF       CLOUDY    49  30  47 N17G25    30.13R
RHINELANDER    CLOUDY    57  29  34 VRB7      30.09R
EAGLE RIVER    FAIR      49  26  41 N17G23    30.11R
LAND O LAKES   CLOUDY    45  26  48 N13G18    30.16R
PHILLIPS       CLOUDY    49  29  47 N12G18    30.14R
TOMAHAWK       CLOUDY    56  28  34 N9G17     30.10R
MEDFORD        FAIR      60  34  37 N10       30.07R
MERRILL        FAIR      64  32  30 N15G24    30.06R
$$

WIZ029-030-035-036-043>047-242300-
CENTRAL WISCONSIN

CITY           SKY/WX    TMP DP  RH WIND       PRES   REMARKS
WAUSAU         CLOUDY    65  33  30 N8        30.01S
MOSINEE        PTSUNNY   63  34  34 N12G28    30.04S
MARSHFIELD     CLOUDY    65  37  35 N7        30.03S
STEVENS POINT  CLOUDY    64  35  34 N6        30.02S
WAUPACA        PTSUNNY   71  30  21 E7        30.01F
WAUTOMA        FAIR      70  29  21 N9        30.00F
WISC RAPIDS    CLOUDY    67  37  33 N14       30.02S
CAMP DOUGLAS   NOT AVBL
$$

WIZ011>013-019>022-031-037>040-048>050-242300-
NORTHEAST WISCONSIN

CITY           SKY/WX    TMP DP  RH WIND       PRES   REMARKS
ANTIGO         CLOUDY    59  38  45 N3        30.04S
SHAWANO        PTSUNNY   64  33  30 E5        30.03R
OCONTO         PTSUNNY   56  34  43 NE12      30.04S
STURGEON BAY   FAIR      57  30  35 E6        30.05S
GREEN BAY      PTSUNNY   54  34  46 NE15      30.03S
MANITOWOC      CLOUDY    59  50  72 E8        30.04S
APPLETON       PTSUNNY   64  19  17 E7        30.00F
CLINTONVILLE   PTSUNNY   64  32  30 SE6       30.02S
OSHKOSH        FAIR      66  35  31 NE9       30.01S
$$

WIZ032>034-041-042-053>061-242300-
SOUTHWEST WISCONSIN

CITY           SKY/WX    TMP DP  RH WIND       PRES   REMARKS
LA CROSSE      CLOUDY    70  38  31 N14G24    30.02R
SPARTA         CLOUDY    68  37  31 N5        30.03S
VIROQUA        CLOUDY    67  40  38 N13       30.02S
BOSCOBEL       FAIR      76  36  23 NW8G16    30.00R
PRAIRIE DU CHI FAIR      73  30  21 N9        30.01R
PLATTEVILLE    PTSUNNY   72  33  23 NW9       30.00S
$$

WIZ056-057-062-063-064-067-068-242300-
SOUTH CENTRAL WISCONSIN

CITY           SKY/WX    TMP DP  RH WIND       PRES   REMARKS
REEDSBURG      FAIR      71  35  27 N7        29.99S
BARABOO/DELLS  FAIR      72  29  20 NW7       29.99S
LONE ROCK      FAIR      73  34  23 N8        29.99S
MINERAL POINT  FAIR      72  27  18 N10G16    30.00R
MADISON        FAIR      72  32  23 NE14      29.97F
MIDDLETON      FAIR      73  27  18 N10G16    29.99S
WATERTOWN      FAIR      68  31  25 N10G17    29.99S
MONROE         FAIR      72  28  20 N12       29.98S
JANESVILLE     SUNNY     73  16  11 N9        29.97F
$$

WIZ051-052-058>065-066-070>072-242300-
SOUTHEAST WISCONSIN

CITY           SKY/WX    TMP DP  RH WIND       PRES   REMARKS
MILWAUKEE      FAIR      57  48  72 E9        30.02R
WAUKESHA       SUNNY     64  43  45 E9G17     30.00S
MILWAUKEE/TIMM MOSUNNY   57  45  62 E8        30.02R
RACINE         FAIR      59  48  67 NE9       30.02S
BURLINGTON     FAIR      67  47  47 SE9       29.98S
KENOSHA        FAIR      60  47  61 E10       30.00S
FOND DU LAC    CLOUDY    65  44  46 N9        30.01S
SHEBOYGAN      FAIR      61  51  70 NE3       30.02S
WEST BEND      FAIR      63  45  51 E8        30.01R
JUNEAU         FAIR      67  30  25 N13       30.02R
$$

LSZ147-162-242300-
LAKE SUPERIOR

STATION/POSITION TIME  TEMP    WIND        PRES    WAVE
                       AIR SEA DIR/SP/G            HT/PER
                 (UTC) (F)     (DEG/KT/KT) (MB)    (FT/S)
DEVILS ISLAND    2200   48     130/  4/  6 1022.3F
SAXON HARBOR     2130   44     190/  2/  4 1022.0F
$$

LMZ867-665-643>646-242300-
LAKE MICHIGAN

STATION/POSITION TIME  TEMP    WIND        PRES    WAVE
                       AIR SEA DIR/SP/G            HT/PER
                 (UTC) (F)     (DEG/KT/KT) (MB)    (FT/S)
NORTHPORT PIER   2140   45                 1017.9S
KEWAUNEE LAKESHO 2148   49      30/  5/  7 1016.8S
SHEBOYGAN LAKESH 2200   48      50/  5/  5 1017.0S
PORT WASHINGTON  2130   47      40/  7/  9 1017.6S
MILWAUKEE LAKESH 2150   43      40/  5/  6   N/A
KENOSHA   LAKESH 2200   44                 1016.3
$$

TC  - TEMPERATURE IN CELSIUS
VSB - VISIBILITY IN STATUTE MILES
WCI - WIND CHILL INDEX
HX  - HEAT INDEX





USA.gov is the U.S. government's official web portal to all federal, state and local government web resources and services.